EW9542 Weather Reports


Display with metric or nautical units.
time (UTC)temp
F
wind
direction
speed
MPH
gust
MPH
rain 1hr
in
rain 24hr
in
rain mn
in
humidity
%
barometer
mb
20260503203527 63 323 4.0 13.0 0.00 0.00 0.00 23 1014.1
20260503202545 63 291 6.0 11.0 0.00 0.00 0.00 23 1014.2
20260503201523 62 328 5.0 9.0 0.00 0.00 0.00 24 1014.4
20260503200520 62 257 4.0 10.0 0.00 0.00 0.00 22 1014.4
20260503195518 62 7 4.0 8.0 0.00 0.00 0.00 23 1014.6
20260503194551 62 337 7.0 13.0 0.00 0.00 0.00 24 1014.8
20260503193529 61 323 8.0 13.0 0.00 0.00 0.00 24 1015.0
20260503192526 61 320 5.0 10.0 0.00 0.00 0.00 23 1015.1
20260503191545 61 322 7.0 11.0 0.00 0.00 0.00 23 1015.3
20260503190523 60 349 4.0 13.0 0.00 0.00 0.00 24 1015.5
20260503185519 59 300 8.0 14.0 0.00 0.00 0.00 25 1015.6
20260503184517 60 2 8.0 15.0 0.00 0.00 0.00 24 1015.7
20260503183531 60 2 8.0 14.0 0.00 0.00 0.00 25 1015.9
20260503182528 60 341 9.0 19.0 0.00 0.00 0.00 25 1015.8
20260503181526 59 312 6.0 11.0 0.00 0.00 0.00 27 1015.8
20260503180523 59 324 6.0 13.0 0.00 0.00 0.00 26 1015.9
20260503175521 58 319 6.0 13.0 0.00 0.00 0.00 27 1016.1
20260503174519 58 325 6.0 13.0 0.00 0.00 0.00 28 1016.0
20260503173517 57 318 6.0 9.0 0.00 0.00 0.00 30 1016.1
20260503172529 57 342 6.0 12.0 0.00 0.00 0.00 30 1016.3
20260503171547 57 354 7.0 12.0 0.00 0.00 0.00 29 1016.5
20260503170525 56 292 6.0 12.0 0.00 0.00 0.00 30 1016.5
20260503150527 54 298 8.0 18.0 0.00 0.00 0.00 33 1017.6
20260503130530 48 351 5.0 11.0 0.00 0.00 0.00 45 1017.9
20260503110517 39 31 1.0 2.0 0.00 0.00 0.00 72 1016.9
20260503081521 43 353 2.0 4.0 0.00 0.00 0.00 60 1015.6
20260503080519 43 341 4.0 8.0 0.00 0.00 0.00 60 1015.5
20260503072545 44 339 2.0 3.0 0.00 0.00 0.00 59 1015.2
20260503071522 44 355 2.0 4.0 0.00 0.00 0.00 58 1015.2
20260503070520 44 358 3.0 6.0 0.00 0.00 0.00 57 1015.0
20260503054516 44 8 3.0 6.0 0.00 0.00 0.00 58 1014.8
20260503053529 44 6 5.0 8.0 0.00 0.00 0.00 60 1014.7
20260503052527 41 12 4.0 8.0 0.00 0.00 0.00 68 1014.7
20260503051524 39 101 1.0 3.0 0.00 0.00 0.00 74 1014.8
20260503050522 40 339 2.0 4.0 0.00 0.00 0.00 72 1014.7
20260503045520 41 347 1.0 2.0 0.00 0.00 0.00 68 1014.8
20260503044518 42 150 1.0 3.0 0.00 0.00 0.00 65 1014.9
20260503043530 41 197 2.0 4.0 0.00 0.00 0.00 66 1014.8
20260503042528 41 354 1.0 2.0 0.00 0.00 0.00 67 1014.8
20260503041546 40 333 1.0 2.0 0.00 0.00 0.00 67 1014.8
20260503040523 41 353 2.0 2.0 0.00 0.00 0.00 66 1014.8
20260503035521 42 19 1.0 2.0 0.00 0.00 0.00 64 1014.9
20260503034518 43 4 2.0 3.0 0.00 0.00 0.00 63 1014.8
20260503033516 44 7 1.0 2.0 0.00 0.00 0.00 59 1014.8
20260503032529 45 10 2.0 2.0 0.00 0.00 0.00 57 1014.9
20260503031547 45 352 1.0 2.0 0.00 0.00 0.00 56 1014.9
20260503030525 47 5 1.0 2.0 0.00 0.00 0.00 52 1014.8
20260503025522 47 17 3.0 4.0 0.00 0.00 0.00 50 1014.9
20260503024520 48 21 3.0 6.0 0.00 0.00 0.00 48 1014.8
20260503023518 49 17 6.0 10.0 0.00 0.00 0.00 47 1014.7
20260503022532 49 10 6.0 11.0 0.00 0.00 0.00 47 1014.8
20260503021529 50 12 5.0 10.0 0.00 0.00 0.00 46 1014.7
20260503020546 50 4 6.0 10.0 0.00 0.00 0.00 45 1014.6
20260503015524 51 3 5.0 9.0 0.00 0.00 0.00 44 1014.6
20260503014521 51 1 6.0 11.0 0.00 0.00 0.00 43 1014.5
20260503013519 51 12 4.0 6.0 0.00 0.00 0.00 44 1014.3
20260503012517 51 26 5.0 11.0 0.00 0.00 0.00 43 1014.1
20260503011550 52 22 4.0 6.0 0.00 0.00 0.00 43 1014.0
20260503010528 52 13 4.0 7.0 0.00 0.00 0.00 42 1013.9
20260503005605 52 25 5.0 9.0 0.00 0.00 0.00 42 1013.7
20260503004543 52 8 4.0 6.0 0.00 0.00 0.00 42 1013.5
20260503003521 53 11 4.0 9.0 0.00 0.00 0.00 41 1013.2
20260503002519 53 15 3.0 6.0 0.00 0.00 0.00 41 1013.1
20260503001517 53 23 4.0 7.0 0.00 0.00 0.00 39 1012.9
20260503000529 54 24 4.0 8.0 0.00 0.00 0.00 38 1012.8
20260502235547 54 13 6.0 11.0 0.00 0.00 0.00 36 1012.7
20260502234524 55 27 5.0 11.0 0.00 0.00 0.00 36 1012.5
20260502233522 55 14 5.0 11.0 0.00 0.00 0.00 35 1012.4
20260502232540 55 6 5.0 11.0 0.00 0.00 0.00 35 1012.4
20260502231558 55 1 6.0 12.0 0.00 0.00 0.00 34 1012.3
20260502230531 56 23 6.0 12.0 0.00 0.00 0.00 33 1012.2
20260502225528 56 12 5.0 7.0 0.00 0.00 0.00 33 1012.1
20260502224526 56 352 6.0 12.0 0.00 0.00 0.00 32 1012.0
20260502223524 57 1 4.0 7.0 0.00 0.00 0.00 33 1012.0
20260502222521 57 18 5.0 11.0 0.00 0.00 0.00 32 1012.0
20260502221519 57 12 6.0 12.0 0.00 0.00 0.00 32 1011.9
20260502220516 57 7 5.0 9.0 0.00 0.00 0.00 33 1011.9
20260502215549 57 24 5.0 10.0 0.00 0.00 0.00 33 1011.7
20260502214547 56 23 5.0 8.0 0.00 0.00 0.00 33 1011.9
20260502213525 57 21 7.0 12.0 0.00 0.00 0.00 33 1011.9
20260502212603 57 12 4.0 10.0 0.00 0.00 0.00 33 1011.8
20260502211521 57 12 5.0 9.0 0.00 0.00 0.00 33 1011.9
20260502210518 57 11 5.0 10.0 0.00 0.00 0.00 32 1012.0
20260502205516 59 5 7.0 13.0 0.00 0.00 0.00 31 1011.9
20260502204528 57 353 5.0 10.0 0.00 0.00 0.00 33 1011.9